Home   Weather   Passo Fundo   Past weeks

Flag for Brazil Past Weather in Passo Fundo, Rio Grande do Sul, Brazil — Yesterday and Last 2 Weeks

Now
77 °F

Scattered clouds.


Feels Like: 79 °F
Forecast: 58 / 86 °F
Wind: 5 mph from Southeast

Location: Porto Alegre Aero-Porto

Current Time: Dec 7, 2016 at 10:54:24 am

Latest Report: Dec 7, 2016 at 10:00 am


Visibility: N/A

Pressure: 29.86 "Hg (27.62 "Hg at 680m altitude)

Humidity: 65%

Dew Point: 64 °F

Location of Passo FundoLocation

Past Weather in Passo Fundo — Graph

°F

Passo Fundo Temperature Yesterday

Maximum temperature yesterday: 90 °F (at 4:00 pm)
Minimum temperature yesterday: 63 °F (at 6:00 am)
Average temperature yesterday: 76 °F

High & Low Weather Summary for the Past Weeks

 TemperatureHumidityPressure
High91 °F (Nov 26, 4:00 pm)94% (Nov 26, 7:00 am)30.21 "Hg (Nov 26, 7:00 am)
Low55 °F (Nov 30, 5:00 am)22% (Dec 3, 12:00 pm)29.71 "Hg (Dec 3, 6:00 pm)
Average72 °F67%29.92 "Hg
* Reported Nov 22 9:00 am — Dec 7 9:00 am, Passo Fundo, Weather by CustomWeather, © 2016

Note: Actual official high and low records may vary slightly from our data, if they occured in-between our weather recording intervals... More about our weather records

Advertising

Passo Fundo Weather History for the Previous 24 Hours

Scroll right to see more
 ConditionsComfort  
Time TempWeatherWind HumidityBarometerVisibility
9:00 am
Wed, Dec 7
75 °FPartly sunny.3 mph74%29.86 "HgN/A
8:00 am73 °FPartly sunny.6 mph78%29.86 "HgN/A
7:00 am72 °FPassing clouds.3 mph83%29.83 "HgN/A
6:00 am70 °FClear.No wind83%29.80 "Hg10 mi
5:00 am73 °FPassing clouds.6 mph74%29.77 "HgN/A
4:00 am73 °FClear.3 mph69%29.77 "Hg10 mi
3:00 am75 °FPassing clouds.3 mph69%29.77 "HgN/A
2:00 am75 °FPassing clouds.3 mph78%29.77 "HgN/A
1:00 am75 °FClear.8 mph78%29.77 "Hg10 mi
12:00 am79 °FClear.9 mph58%29.77 "Hg10 mi
11:00 pm
Tue, Dec 6
75 °FClear.3 mph65%29.77 "Hg6 mi
10:00 pm77 °FClear.No wind61%29.74 "Hg10 mi
9:00 pm84 °FPassing clouds.5 mph43%29.74 "HgN/A
8:00 pm84 °FSunny.5 mph43%29.74 "Hg10 mi
7:00 pm88 °FSunny.9 mph33%29.74 "Hg10 mi
6:00 pm88 °FSunny.13 mph33%29.74 "Hg10 mi
5:00 pm88 °FSunny.13 mph31%29.77 "Hg10 mi
4:00 pm90 °FSunny.13 mph27%29.77 "Hg10 mi
3:00 pm88 °FSunny.9 mph33%29.77 "Hg10 mi
2:00 pm86 °FSunny.10 mph40%29.80 "Hg10 mi
1:00 pm84 °FPassing clouds.7 mph43%29.80 "HgN/A
11:00 am77 °FPassing clouds.8 mph57%29.83 "HgN/A
10:00 am73 °FPassing clouds.6 mph65%29.80 "HgN/A
Weather by CustomWeather, © 2016

See weather overviewHow to use our weather pages